Flag for West Bank Weather past 2 weeks in Bethlehem, West Bank

Now
86 °F

Scattered clouds.


Feels Like: 88 °F
Forecast: 64 / 78 °F
Wind: 10 mph from Northwest

Location: Ben Gurion International Airport

Current Time: Sep 18, 2014 at 1:20:34 PM

Latest Report: Sep 18, 2014 at 12:50 PM


Visibility: N/A

Pressure: 29.92 "Hg

Humidity: 52%

Dew point: 66 °F

Location of BethlehemLocation

Historic Weather in Bethlehem — Graph

°F

Bethlehem temperature yesterday

Maximum temperature yesterday: 100 °F (at 1:20 PM)
Minimum temperature yesterday: 70 °F (at 6:20 AM)
Average temperature yesterday: 85 °F

Past Weeks' High & Low Weather Summary

 TemperatureHumidityPressure
High100 °F (Sep 17, 1:20 PM)83% (Sep 5, 3:20 AM)29.95 "Hg (Sep 5, 3:20 AM)
Low70 °F (Sep 17, 6:20 AM)20% (Sep 17, 10:50 AM)29.68 "Hg (Sep 17, 3:50 PM)
Average81 °F63%29.85 "Hg
* Reported Sep 3 12:20 PM — Sep 18 12:20 PM, Bethlehem, Weather by CustomWeather, © 2014

Note: Actual official high and low records may vary slightly from our data, if they occured in-between our weather recording intervals... More about our weather records

Advertising

Bethlehem weather history for previous 24 hours

 ConditionsComfort  
Time TempWeatherWind HumidityBarometerVisibility
12:20 PM
Sep 18
86 °FScattered clouds.14 mph55%29.92 "HgN/A
11:50 AM84 °FScattered clouds.8 mph58%29.92 "HgN/A
11:20 AM84 °FScattered clouds.12 mph58%29.92 "HgN/A
10:50 AM84 °FScattered clouds.9 mph58%29.92 "HgN/A
10:20 AM84 °FScattered clouds.9 mph58%29.92 "HgN/A
9:50 AM81 °FScattered clouds.8 mph66%29.92 "HgN/A
9:20 AM84 °FScattered clouds.1 mph62%29.92 "HgN/A
8:50 AM81 °FPartly sunny.5 mph66%29.89 "HgN/A
8:20 AM82 °FScattered clouds.3 mph62%29.89 "HgN/A
7:50 AM79 °FPassing clouds.3 mph74%29.89 "HgN/A
7:20 AM79 °FPassing clouds.5 mph70%29.89 "HgN/A
6:50 AM77 °FPassing clouds.2 mph74%29.89 "HgN/A
6:20 AM77 °FPassing clouds.2 mph74%29.86 "HgN/A
5:50 AM77 °FPassing clouds.3 mph74%29.86 "HgN/A
5:20 AM77 °FPassing clouds.5 mph74%29.86 "HgN/A
4:50 AM77 °FPassing clouds.3 mph74%29.86 "HgN/A
4:20 AM79 °FPassing clouds.6 mph70%29.86 "HgN/A
3:50 AM79 °FPassing clouds.3 mph70%29.86 "HgN/A
3:20 AM79 °FPassing clouds.2 mph70%29.86 "HgN/A
2:50 AM79 °FPassing clouds.5 mph70%29.86 "HgN/A
2:20 AM79 °FPassing clouds.6 mph74%29.86 "HgN/A
1:50 AM79 °FPassing clouds.7 mph74%29.83 "HgN/A
1:20 AM79 °FPassing clouds.9 mph74%29.83 "HgN/A
12:50 AM81 °FPassing clouds.9 mph70%29.83 "HgN/A
12:20 AM81 °FPassing clouds.10 mph74%29.83 "HgN/A
11:50 PM
Sep 17
81 °FPassing clouds.12 mph74%29.83 "HgN/A
11:20 PM81 °FPassing clouds.10 mph74%29.83 "HgN/A
10:50 PM81 °FClear.8 mph74%29.83 "Hg10 mi
10:20 PM82 °FClear.12 mph70%29.80 "Hg10 mi
9:50 PM82 °FClear.13 mph74%29.80 "Hg10 mi
9:20 PM82 °FClear.9 mph70%29.80 "Hg10 mi
8:50 PM84 °FClear.8 mph66%29.77 "Hg10 mi
8:20 PM84 °FClear.5 mph66%29.77 "Hg10 mi
7:50 PM84 °FClear.8 mph62%29.77 "Hg10 mi
7:20 PM84 °FSunny.9 mph66%29.74 "Hg10 mi
6:50 PM86 °FSunny.10 mph62%29.74 "Hg10 mi
6:20 PM90 °FSunny.13 mph46%29.71 "Hg10 mi
5:50 PM95 °FSunny.16 mph28%29.71 "Hg10 mi
5:20 PM97 °FSunny.15 mph25%29.71 "Hg10 mi
4:50 PM99 °FSunny.15 mph24%29.68 "Hg10 mi
4:20 PM100 °FSunny.10 mph22%29.68 "Hg10 mi
3:50 PM100 °FPassing clouds.13 mph22%29.68 "HgN/A
3:20 PM100 °FPassing clouds.13 mph24%29.71 "HgN/A
2:50 PM100 °FPassing clouds.10 mph25%29.71 "HgN/A
2:20 PM100 °FPassing clouds.10 mph24%29.71 "HgN/A
1:50 PM100 °FPassing clouds.8 mph24%29.71 "HgN/A
1:20 PM100 °FSunny.2 mph22%29.74 "Hg10 mi
Weather by CustomWeather, © 2014

See weather overviewHow to use our weather pages